Temp
29 23 17 18 22 22 20 18 15 21 28 24 22 23 29 32 32 30 30 29 31 31 35 36 37 37 37 38 38 38 39 41 43 44 46 61 63 66 68 69 69 67 66 63
24 17 22 27 27 24 21 17 15 22 28 25 22 23 29 32 31 32 30 29 29 30 32 33 34 34 34 34 35 36 37 38 39 42 44 49 52 66 68 70 68 66 63 62
19 22 29 28 23 21 19 18 16 17 23 24 22 21 25 31 33 33 33 32 31 28 28 29 31 31 32 31 32 33 34 36 37 40 41 44 49 62 64 65 64 63 62 62
20 25 26 23 21 22 17 24 21 19 17 11 21 10 20 26 28 29 30 30 29 28 29 29 29 30 30 30 32 32 33 34 36 37 37 37 40 43 61 65 66 63 62 60
19 20 20 19 21 25 20 24 20 20 16 14 17 11 19 25 22 24 28 29 29 29 28 27 27 30 31 30 30 30 31 32 33 34 36 37 38 44 54 64 63 62 60 60
21 25 23 22 26 25 27 21 22 20 16 4 16 16 13 18 19 24 28 28 28 28 28 28 29 29 30 31 30 29 29 29 32 33 35 36 37 40 45 59 59 58 59 58
19 21 22 26 19 24 22 13 5 5 1 6 17 13 13 21 24 24 25 26 28 28 27 27 27 26 27 28 28 28 27 27 30 32 33 35 37 38 42 51 59 57 56 56
7 10 19 25 19 11 17 10 3 -1 4 6 16 10 15 23 26 27 27 26 27 27 27 27 28 27 27 28 28 27 26 26 29 30 31 34 36 37 39 43 57 56 57 56
1 11 21 26 24 19 13 7 14 -2 6 2 10 13 20 25 23 24 24 24 24 25 26 26 27 27 27 26 26 26 26 26 28 29 30 32 33 34 37 39 43 52 55 54
12 2 20 23 22 21 15 19 5 3 -12 -8 7 7 12 18 20 23 22 21 23 25 25 26 26 27 27 27 27 27 26 25 27 28 28 31 31 33 35 38 38 39 45 49
4 6 13 17 11 13 12 9 9 9 4 -3 -2 4 9 16 21 20 21 23 22 23 24 24 25 27 27 27 26 26 24 24 25 27 26 28 29 30 32 34 36 38 40 44
13 5 -1 8 15 18 11 8 9 -1 -1 4 5 3 23 21 23 22 22 24 23 24 23 23 23 24 25 24 25 24 24 23 24 26 26 26 28 29 28 30 33 36 37 39
10 2 -5 6 7 12 4 14 16 11 9 1 -5 5 22 23 21 23 21 22 23 25 23 24 23 22 22 23 23 24 23 22 23 24 25 26 26 26 26 27 30 33 36 37
23 0 1 4 7 3 -1 4 15 5 -6 3 6 13 21 22 22 20 21 22 21 22 23 23 22 21 22 23 22 22 22 22 22 22 22 23 24 25 25 26 28 29 32 34
15 0 -2 7 11 11 10 8 9 8 11 2 16 13 18 18 16 22 22 22 23 24 24 22 23 21 20 20 20 21 22 21 21 20 21 20 22 25 25 25 26 27 29 31
8 -3 -4 -4 11 11 7 10 9 11 12 12 13 12 22 23 24 18 22 24 24 24 24 25 25 24 24 22 20 21 19 19 21 19 19 20 21 23 23 24 25 25 26 28
5 -1 -6 -7 6 5 -1 6 9 10 4 11 6 15 21 18 20 20 21 23 24 25 26 24 24 22 23 19 22 16 18 19 19 19 19 19 19 20 21 22 23 23 24 26
5 3 0 -5 -6 -10 11 11 11 13 13 13 12 16 16 19 22 19 19 20 23 26 26 24 22 20 20 20 18 19 20 19 18 17 17 17 17 17 20 19 19 20 22 22
20 10 -6 -10 -21 3 14 9 4 4 6 16 15 18 19 17 11 16 22 22 22 23 25 22 21 18 17 18 19 19 19 17 15 14 15 15 15 16 17 16 17 18 18 20
16 17 4 -20 -18 -14 6 9 11 10 4 11 15 16 16 13 6 18 16 21 23 23 24 21 21 20 19 18 19 18 16 14 11 12 12 14 13 14 15 15 15 17 16 18
1 9 4 1 -9 -2 11 14 13 1 12 12 15 17 14 13 18 19 17 18 21 24 24 21 20 19 19 18 17 15 14 9 11 10 11 11 12 11 14 14 15 15 15 16
2 -2 -7 -3 -6 -7 15 15 12 16 13 16 15 17 17 18 21 19 20 21 23 21 21 22 19 19 17 16 15 12 10 11 8 8 7 8 8 10 12 10 12 12 13 14
2 9 3 3 6 11 17 17 21 15 16 19 17 21 21 20 19 21 21 22 21 20 21 20 18 16 4 5 11 10 10 8 6 3 2 3 6 7 9 8 8 8 10 11
8 9 7 5 12 14 18 16 20 23 22 25 25 23 21 18 20 21 22 21 20 19 16 16 14 12 7 8 12 8 8 3 -4 -3 -1 1 2 3 5 7 7 7 7 8
14 11 10 13 20 22 22 22 25 27 27 25 24 22 21 20 21 22 21 20 19 18 15 12 14 12 11 8 4 1 4 -1 -1 -1 -2 -1 2 2 3 5 5 7 9 10
18 18 14 13 24 22 25 26 22 20 21 24 23 21 22 21 20 19 17 16 15 14 12 11 11 9 7 6 5 4 1 0 -3 -2 0 1 0 1 1 1 2 7 10 12
MSLP
1026.63 1027.51 1029.60 1030.12 1030.15 1030.49 1030.65 1030.66 1030.16 1028.24 1027.87 1027.21 1026.88 1026.26 1025.50 1024.73 1023.92 1023.77 1023.86 1023.75 1022.76 1022.28 1022.13 1021.46 1020.59 1019.64 1018.70 1018.02 1017.01 1016.04 1014.88 1013.95 1013.00 1011.67 1010.27 1007.85 1006.74 1006.17 1005.67 1005.64 1006.05 1006.43 1006.80 1007.44
1028.67 1029.85 1030.73 1030.55 1030.49 1030.73 1030.67 1030.61 1030.11 1028.87 1028.21 1028.28 1027.42 1026.40 1025.77 1025.05 1024.83 1024.71 1024.42 1024.00 1023.89 1022.92 1021.41 1021.53 1020.98 1020.33 1019.75 1019.05 1018.11 1016.94 1015.86 1014.76 1013.90 1012.74 1011.67 1010.33 1008.20 1005.59 1005.14 1004.88 1005.20 1005.92 1006.31 1006.85
1029.27 1031.05 1030.83 1030.79 1030.63 1030.43 1030.42 1030.63 1030.63 1030.29 1028.98 1028.03 1027.54 1026.71 1025.78 1025.03 1024.83 1024.51 1024.44 1024.64 1024.44 1024.16 1023.24 1021.84 1021.31 1020.98 1020.31 1019.59 1018.71 1017.81 1016.78 1015.53 1014.39 1013.25 1011.74 1010.24 1008.22 1005.64 1004.67 1004.45 1004.50 1004.94 1005.50 1006.08
1031.02 1031.32 1031.11 1030.89 1030.84 1030.93 1030.33 1030.29 1030.31 1029.87 1029.74 1029.29 1028.28 1027.66 1026.14 1025.33 1024.82 1024.66 1024.56 1024.43 1024.66 1024.47 1023.88 1023.13 1022.10 1021.23 1020.74 1020.17 1019.51 1018.50 1017.33 1016.08 1014.78 1013.75 1012.34 1011.11 1009.69 1007.48 1004.89 1003.69 1003.80 1004.07 1004.60 1005.31
1032.07 1031.76 1031.47 1031.25 1031.33 1031.10 1030.39 1030.14 1029.91 1029.72 1029.83 1029.88 1028.89 1028.51 1026.24 1025.66 1025.21 1025.24 1024.99 1024.87 1024.76 1024.68 1024.50 1023.88 1023.12 1022.12 1021.44 1020.63 1019.77 1018.90 1017.69 1016.48 1015.21 1014.01 1012.97 1011.21 1009.66 1007.96 1005.65 1003.54 1003.03 1003.50 1003.86 1004.41
1032.33 1031.97 1031.88 1031.63 1031.38 1031.27 1030.55 1029.97 1029.75 1029.91 1030.14 1030.09 1029.40 1029.14 1026.89 1026.48 1026.49 1025.81 1025.23 1025.08 1024.98 1024.60 1024.36 1023.93 1023.60 1022.70 1021.57 1020.79 1019.91 1019.06 1018.03 1016.80 1015.61 1014.17 1012.88 1011.39 1009.77 1008.10 1006.20 1003.78 1002.69 1002.88 1003.43 1003.57
1033.24 1032.66 1032.20 1031.97 1031.79 1031.48 1031.28 1031.15 1031.73 1031.52 1031.28 1030.51 1029.40 1029.24 1026.84 1026.70 1026.54 1026.24 1025.85 1025.56 1025.17 1024.86 1024.41 1023.86 1023.19 1022.37 1021.44 1020.57 1019.90 1019.12 1018.34 1017.16 1015.87 1014.49 1012.93 1011.34 1009.89 1008.28 1006.42 1004.32 1002.22 1002.26 1002.80 1003.25
1034.74 1033.26 1032.80 1032.53 1032.72 1033.02 1032.93 1033.21 1034.31 1034.84 1034.06 1032.37 1030.12 1028.94 1026.61 1026.49 1026.49 1026.22 1025.98 1025.98 1025.47 1025.10 1024.66 1024.05 1023.50 1023.03 1022.17 1021.34 1020.45 1019.54 1018.78 1017.71 1016.34 1014.76 1013.07 1011.52 1010.28 1008.73 1006.89 1005.09 1002.32 1001.75 1001.90 1002.33
1035.75 1034.50 1033.39 1032.89 1032.86 1033.54 1033.91 1034.70 1035.36 1036.02 1035.78 1034.85 1031.15 1028.82 1027.17 1026.30 1026.20 1025.82 1025.68 1025.70 1025.74 1025.32 1024.92 1024.42 1023.75 1023.19 1022.61 1021.91 1021.08 1020.21 1019.31 1018.29 1016.98 1015.41 1013.74 1012.00 1010.59 1009.12 1007.58 1005.84 1003.88 1001.96 1001.42 1001.46
1036.48 1036.09 1034.13 1033.54 1033.46 1033.88 1034.18 1035.14 1035.93 1036.81 1037.23 1035.57 1032.11 1029.98 1027.61 1026.40 1026.11 1026.01 1025.89 1025.89 1025.67 1025.41 1025.04 1024.69 1024.20 1023.62 1023.04 1022.33 1021.63 1020.63 1019.78 1018.99 1017.75 1016.22 1014.78 1013.02 1011.35 1010.01 1008.67 1006.97 1005.56 1004.53 1003.00 1002.42
1036.70 1036.90 1035.54 1034.78 1034.24 1034.20 1035.13 1035.66 1036.37 1037.15 1037.60 1037.14 1034.73 1029.42 1026.29 1026.01 1025.81 1025.89 1025.71 1025.61 1025.49 1025.20 1024.99 1024.87 1024.51 1024.00 1023.38 1022.73 1022.05 1021.31 1020.26 1019.29 1018.04 1016.75 1015.49 1014.13 1012.24 1010.88 1009.81 1008.31 1006.77 1005.54 1004.58 1003.63
1036.80 1037.37 1036.89 1035.36 1034.86 1034.79 1035.25 1035.71 1036.18 1036.90 1037.54 1036.84 1035.53 1029.74 1025.54 1025.14 1025.00 1025.25 1025.08 1025.12 1025.12 1025.01 1024.80 1024.70 1024.46 1024.06 1023.65 1023.29 1022.67 1021.93 1021.07 1020.01 1019.04 1017.75 1016.30 1015.17 1013.40 1011.85 1010.65 1009.33 1008.09 1006.36 1005.57 1004.89
1036.72 1037.83 1037.68 1036.45 1036.25 1035.75 1035.68 1035.51 1035.66 1036.25 1036.45 1035.45 1034.74 1028.18 1024.85 1024.79 1024.39 1024.13 1024.68 1024.61 1024.52 1024.42 1024.35 1024.27 1024.19 1024.00 1023.77 1023.51 1022.99 1022.35 1021.59 1020.83 1019.80 1018.48 1017.04 1015.87 1014.44 1012.98 1011.85 1010.70 1009.47 1008.20 1006.92 1005.98
1035.87 1037.61 1037.70 1036.60 1035.69 1035.64 1035.83 1035.06 1035.16 1035.59 1035.99 1033.51 1029.78 1026.13 1024.29 1024.53 1024.31 1024.25 1024.24 1024.07 1024.03 1024.00 1023.90 1023.84 1023.76 1023.73 1023.64 1023.44 1023.10 1022.51 1021.93 1021.41 1020.48 1019.54 1018.09 1016.93 1015.82 1014.51 1013.41 1012.21 1010.91 1009.56 1008.38 1007.36
1036.20 1037.63 1037.81 1036.74 1035.91 1035.32 1034.47 1034.35 1034.37 1033.90 1032.18 1031.87 1025.42 1026.23 1023.57 1023.78 1024.07 1023.85 1023.86 1023.69 1023.56 1023.29 1023.27 1023.34 1023.38 1023.36 1023.29 1023.22 1023.04 1022.76 1022.23 1021.73 1021.12 1020.20 1019.18 1018.08 1017.13 1015.81 1014.66 1013.47 1012.29 1011.25 1010.09 1009.07
1037.00 1037.72 1038.51 1037.21 1035.37 1034.73 1033.54 1032.18 1032.04 1031.76 1030.78 1029.84 1027.50 1025.83 1023.07 1023.20 1023.27 1023.39 1023.29 1023.17 1022.90 1022.57 1022.53 1022.57 1022.67 1022.89 1023.03 1023.05 1022.88 1022.61 1022.35 1021.92 1021.49 1020.89 1019.97 1019.22 1018.05 1016.88 1015.81 1014.92 1013.81 1012.72 1011.65 1010.62
1036.93 1037.98 1039.11 1037.82 1036.10 1034.69 1031.85 1028.06 1028.72 1028.73 1028.21 1027.51 1027.34 1023.60 1023.24 1023.08 1022.89 1022.56 1022.61 1022.42 1022.15 1021.88 1021.74 1021.97 1022.24 1022.46 1022.60 1022.75 1022.81 1022.70 1022.41 1022.16 1021.73 1021.21 1020.49 1019.84 1019.17 1018.01 1016.93 1016.05 1015.32 1014.14 1013.01 1012.13
1035.98 1037.60 1038.83 1038.57 1037.21 1034.01 1028.26 1026.97 1026.84 1026.98 1026.33 1025.64 1024.66 1023.24 1023.06 1022.68 1022.19 1022.16 1022.06 1021.86 1021.61 1021.32 1021.12 1021.26 1021.61 1021.99 1022.24 1022.41 1022.60 1022.54 1022.35 1022.29 1021.94 1021.43 1021.13 1020.53 1019.97 1018.99 1017.86 1016.96 1016.40 1015.61 1014.55 1013.56
1034.54 1036.52 1038.47 1039.47 1038.27 1031.81 1027.49 1026.67 1026.67 1026.55 1025.03 1023.38 1023.44 1022.91 1022.50 1022.37 1022.56 1021.72 1021.10 1020.88 1020.82 1020.62 1020.37 1020.34 1020.77 1021.24 1021.69 1022.11 1022.36 1022.45 1022.40 1022.43 1022.21 1021.97 1021.69 1021.22 1020.59 1019.75 1018.72 1017.88 1017.24 1016.72 1015.76 1014.57
1034.51 1035.44 1037.19 1039.65 1038.09 1033.25 1027.81 1026.17 1025.73 1025.87 1024.34 1021.91 1021.99 1022.06 1022.06 1022.65 1022.58 1021.02 1020.43 1020.22 1020.14 1019.93 1019.87 1020.02 1020.49 1021.07 1021.43 1021.74 1022.14 1022.34 1022.39 1022.44 1022.57 1022.39 1022.27 1021.93 1021.41 1020.62 1019.60 1018.77 1018.00 1017.46 1016.65 1015.50
1034.84 1035.39 1035.27 1036.31 1035.81 1031.25 1026.27 1025.63 1025.84 1025.69 1022.63 1021.12 1021.53 1021.38 1021.50 1021.88 1021.15 1019.76 1019.68 1019.83 1019.57 1019.52 1019.42 1019.65 1020.09 1020.37 1020.91 1021.44 1021.87 1022.17 1022.33 1022.47 1022.56 1022.60 1022.45 1022.20 1021.73 1021.10 1020.25 1019.54 1018.76 1017.93 1016.85 1015.78
1032.56 1033.27 1033.98 1034.27 1033.95 1029.64 1024.12 1025.02 1024.51 1021.65 1020.95 1021.00 1021.00 1020.74 1020.58 1020.08 1019.79 1019.64 1019.34 1019.16 1018.94 1019.05 1018.91 1018.96 1019.60 1019.91 1020.46 1021.12 1021.61 1022.01 1022.24 1022.30 1022.54 1022.63 1022.51 1022.28 1021.74 1021.09 1020.38 1019.89 1019.12 1018.32 1017.33 1016.26
1030.36 1028.36 1028.93 1028.79 1026.26 1023.15 1022.49 1021.23 1020.96 1020.86 1020.86 1020.53 1020.41 1020.11 1019.86 1019.62 1019.31 1018.97 1018.73 1018.53 1018.34 1018.30 1018.46 1018.59 1019.05 1019.84 1020.43 1020.98 1021.50 1022.01 1022.17 1022.54 1022.83 1022.86 1022.52 1022.22 1021.63 1021.04 1020.57 1020.01 1019.36 1018.60 1017.87 1017.10
1027.43 1026.38 1026.16 1025.44 1022.38 1021.56 1021.22 1020.61 1020.16 1019.69 1019.54 1019.19 1019.19 1019.07 1019.08 1019.07 1018.69 1018.33 1018.16 1018.10 1018.10 1018.04 1018.22 1018.56 1019.07 1019.92 1020.82 1021.21 1021.72 1022.10 1022.29 1022.64 1023.02 1022.84 1022.51 1021.98 1021.51 1020.99 1020.52 1020.04 1019.57 1018.93 1018.41 1017.73
1024.72 1024.73 1023.19 1021.32 1020.62 1019.00 1019.30 1018.89 1018.25 1018.08 1018.04 1017.98 1018.06 1018.19 1018.10 1018.10 1017.98 1018.01 1017.87 1017.96 1018.05 1018.21 1018.59 1019.11 1019.60 1020.37 1021.09 1021.67 1022.09 1022.39 1022.54 1022.72 1022.91 1022.64 1022.24 1021.87 1021.47 1021.10 1020.54 1020.05 1019.64 1018.99 1018.41 1017.92
1022.37 1021.08 1021.20 1018.03 1017.97 1017.53 1016.38 1016.90 1017.10 1017.35 1017.25 1017.14 1017.27 1017.46 1017.51 1017.71 1017.66 1017.87 1017.98 1018.16 1018.44 1018.81 1019.36 1019.89 1020.38 1020.96 1021.60 1022.08 1022.44 1022.57 1022.78 1022.93 1022.95 1022.69 1022.23 1021.88 1021.45 1021.11 1020.66 1020.18 1019.63 1019.18 1018.40 1017.77
Wind_Speed
9 13 11 5 6 5 4 4 11 10 4 14 7 13 8 12 14 16 15 16 21 20 17 19 20 21 22 20 21 22 22 21 16 13 11 10 11 11 12 12 16 15 15 15
7 12 4 2 3 3 2 5 6 13 9 11 5 11 2 9 11 11 14 17 18 23 25 19 21 22 21 21 21 21 21 21 17 11 12 9 11 11 12 11 13 14 15 16
8 4 4 4 3 11 3 1 5 9 14 4 5 2 5 6 11 15 16 14 16 18 21 24 22 21 21 21 22 20 20 20 18 18 13 11 12 11 10 10 9 11 16 16
7 2 3 3 3 8 4 3 12 15 7 3 4 5 4 6 10 16 18 17 16 17 19 19 21 21 21 21 20 20 20 20 17 19 15 16 12 13 13 11 11 10 16 15
3 2 3 3 5 8 8 14 12 9 3 1 3 1 3 4 12 18 18 17 15 15 16 18 19 19 18 19 19 19 20 19 20 19 17 13 15 12 13 11 11 13 13 16
3 1 1 2 8 3 14 5 1 2 3 3 4 4 4 4 7 15 15 15 15 16 16 16 17 17 17 17 18 19 21 20 20 19 19 18 18 17 13 15 9 9 9 10
4 1 3 3 4 4 12 4 5 7 7 5 1 3 8 3 4 8 11 14 13 14 15 16 18 20 20 22 21 19 21 22 21 20 18 18 18 18 17 17 9 10 8 7
4 4 3 5 3 3 6 4 5 4 5 7 8 6 6 5 4 4 5 6 12 13 13 15 16 16 18 20 21 20 21 22 22 21 20 17 18 12 12 13 10 9 9 9
3 4 3 1 1 3 3 5 4 4 2 2 6 7 5 2 4 7 10 9 11 12 12 14 15 15 16 18 19 19 20 21 21 21 18 17 17 18 16 17 15 5 6 8
3 4 2 0 1 2 6 4 2 4 4 7 7 8 9 3 6 8 10 7 10 11 11 12 13 14 13 15 16 18 18 19 19 19 18 16 17 18 17 15 15 14 9 2
4 4 2 4 4 6 1 2 3 3 4 4 6 11 8 7 3 5 7 5 6 9 8 9 11 12 13 14 15 17 17 19 19 19 19 19 18 18 17 15 15 14 12 9
4 5 4 8 1 4 3 6 5 6 5 4 2 15 6 7 6 7 6 7 6 5 6 5 7 9 12 13 13 14 16 16 17 17 17 18 18 18 18 18 18 17 14 12
5 1 5 4 6 5 3 6 4 2 3 8 7 12 4 6 5 6 6 7 7 8 7 5 5 6 8 10 12 12 14 16 16 16 17 18 19 20 19 19 19 17 16 14
6 3 8 8 6 5 2 4 12 7 4 5 18 17 23 16 16 8 8 8 7 7 7 6 6 4 5 8 9 11 13 13 15 16 16 17 19 19 18 18 19 19 17 17
5 6 4 13 14 13 17 14 14 18 21 10 21 11 24 11 9 14 9 7 8 8 6 5 6 5 4 5 6 9 10 12 13 14 15 16 17 17 18 19 19 18 18 16
1 4 2 7 9 13 18 19 21 25 28 27 31 32 28 26 18 10 13 10 9 9 8 8 7 6 7 6 7 9 7 10 11 13 13 15 15 17 17 18 18 18 18 18
6 4 4 9 7 9 11 13 13 9 5 17 17 22 13 13 11 9 10 9 8 11 10 8 7 6 6 5 6 6 5 7 9 11 12 14 15 15 16 16 17 17 17 17
6 6 3 7 6 3 7 4 7 16 8 18 9 13 7 13 12 5 7 7 9 12 11 8 7 6 6 3 4 5 3 6 8 10 12 13 14 14 14 14 15 15 14 13
13 5 1 3 4 12 9 0 6 9 10 16 22 18 16 7 3 9 12 9 12 11 11 10 7 6 5 5 4 4 2 4 6 8 11 12 14 14 13 14 13 12 12 12
6 10 7 3 4 8 7 3 3 3 9 7 10 11 8 5 1 8 6 6 8 9 8 7 6 5 6 6 3 4 3 2 3 7 9 10 11 12 12 12 12 11 10 10
5 8 17 11 6 14 16 6 2 6 10 3 6 9 6 6 9 7 1 4 5 9 10 6 7 8 7 5 4 3 3 3 2 3 7 9 9 10 10 11 10 11 10 9
11 11 7 4 3 16 10 6 9 9 3 1 2 5 5 8 11 8 8 8 9 10 8 8 7 7 6 5 5 4 4 2 2 4 7 8 8 8 8 10 10 10 10 9
5 11 9 16 15 6 10 5 10 2 4 5 5 7 9 10 8 11 10 11 11 10 8 5 7 5 4 4 4 4 2 3 2 4 6 7 8 8 8 9 8 7 8 7
6 5 5 3 11 23 16 14 15 15 15 15 15 13 8 10 11 13 11 10 9 7 6 4 5 5 4 3 3 2 3 1 1 5 6 6 6 8 7 6 6 7 6 6
7 7 9 15 17 25 18 17 22 19 15 13 12 11 11 9 12 10 9 7 6 5 2 2 4 3 2 3 1 1 1 1 4 5 5 5 5 6 7 7 7 7 7 8
8 20 13 17 19 18 19 12 7 9 11 13 11 8 8 8 10 6 7 4 2 3 3 3 2 1 1 1 1 1 1 3 4 7 5 5 5 5 6 7 7 11 13 15
Wind_Direction
19 59 41 354 83 157 218 260 290 284 323 356 8 309 40 19 32 11 9 5 357 357 350 350 349 347 348 349 347 345 341 341 340 335 329 299 249 242 232 224 223 205 199 192
60 60 315 316 50 343 261 299 307 302 336 329 343 303 283 37 31 21 4 1 2 349 349 356 352 349 350 342 342 340 339 334 336 327 323 299 312 255 239 228 212 211 193 188
85 162 299 36 26 360 301 223 307 290 326 332 323 297 329 7 23 8 13 6 360 359 347 345 350 350 344 344 340 337 334 331 331 333 322 318 305 276 242 228 211 197 190 192
78 343 342 0 37 359 304 166 311 300 327 321 64 287 295 324 349 4 356 356 353 351 348 345 344 348 346 342 336 333 331 333 332 333 329 324 302 289 281 231 216 196 191 192
239 17 340 39 349 331 258 317 287 287 211 336 11 3 264 323 348 348 343 344 346 351 347 344 343 340 343 343 342 336 331 333 335 335 332 324 314 300 287 257 213 204 194 191
84 316 301 273 314 280 305 327 350 116 110 36 165 55 284 12 318 327 334 344 343 347 346 345 343 343 344 347 348 344 339 336 335 335 333 330 322 316 299 273 214 195 196 190
335 141 325 12 335 329 345 12 358 357 9 244 25 350 248 233 287 302 327 335 338 344 343 343 345 346 348 347 350 348 345 338 336 336 336 336 330 321 312 305 225 187 183 190
52 339 17 348 120 220 2 58 121 255 313 302 322 227 257 189 224 287 291 318 337 339 341 341 343 341 343 345 347 349 347 340 340 339 339 341 339 332 325 324 273 191 191 184
69 276 327 220 62 111 306 51 190 90 9 316 274 291 301 190 332 349 356 350 340 334 337 337 340 345 342 342 346 349 347 342 343 343 339 345 347 344 342 341 347 316 208 176
177 351 195 60 97 59 114 190 107 37 32 298 279 278 246 290 336 331 336 322 329 327 335 337 339 342 341 345 342 346 350 346 343 346 346 345 352 350 345 347 356 346 353 25
124 106 286 29 202 175 91 104 61 117 146 202 303 263 220 197 218 279 289 301 303 319 322 328 332 339 341 344 349 347 350 347 349 351 353 346 355 357 352 353 356 356 356 349
197 141 263 227 301 355 154 188 143 128 234 224 218 266 238 204 191 219 295 302 288 301 298 307 322 335 341 342 345 350 347 349 347 348 354 352 355 0 0 357 354 359 3 1
202 295 338 356 2 2 183 198 176 116 115 213 155 258 224 215 280 348 289 288 293 306 310 313 322 330 330 333 341 346 351 346 346 349 356 356 357 1 0 358 356 359 1 8
149 174 194 204 198 129 207 219 197 152 170 212 227 271 270 260 287 284 287 290 273 273 284 299 310 300 304 330 333 336 342 344 345 345 356 0 356 358 358 357 360 1 3 5
144 230 202 258 273 263 256 235 212 218 225 210 266 249 266 272 275 282 264 265 274 269 263 268 285 298 290 316 328 328 338 344 347 345 351 355 352 357 359 360 1 360 4 7
39 267 121 279 259 258 262 255 230 233 244 246 258 274 273 276 272 249 249 259 266 275 252 248 261 277 302 314 319 332 329 338 344 349 356 351 352 355 3 357 358 1 1 4
159 154 49 266 343 307 286 242 199 191 215 219 229 239 268 273 256 233 238 236 250 271 267 230 242 252 273 280 309 304 314 329 342 350 355 357 351 354 357 358 353 357 360 357
152 124 125 272 356 287 252 214 183 206 228 214 253 253 237 257 271 245 231 234 256 265 269 225 213 221 252 255 279 293 322 337 347 355 350 352 350 348 352 358 355 348 349 355
196 145 302 233 214 304 278 157 154 166 261 238 229 252 255 267 352 278 233 217 239 255 257 228 212 201 203 224 264 293 307 337 349 357 350 347 344 340 344 351 347 343 340 343
202 196 168 88 210 236 246 250 185 133 287 220 187 228 240 111 314 271 240 223 249 252 253 224 196 201 201 201 217 278 304 341 339 348 341 336 335 334 333 339 337 332 332 333
145 200 217 219 259 280 250 214 140 84 258 182 182 218 169 189 229 252 237 257 229 263 264 208 198 198 204 173 180 232 290 283 332 325 324 322 327 324 323 329 326 328 328 332
169 167 196 167 175 274 186 99 196 218 288 218 230 248 227 236 265 270 262 272 282 261 255 239 201 198 172 167 174 199 244 195 10 338 323 314 314 319 322 326 322 325 328 330
250 195 188 185 207 245 206 211 231 191 218 258 228 245 248 260 256 265 272 273 272 267 253 226 203 176 148 164 163 194 211 151 222 307 302 301 311 314 318 318 318 322 327 325
257 198 238 101 225 244 241 257 266 263 255 265 262 260 250 251 260 269 270 269 263 261 245 198 161 161 168 174 160 212 147 163 300 281 277 285 298 312 314 313 315 318 316 321
188 140 237 258 272 276 260 248 258 268 265 258 251 239 243 246 264 270 280 273 266 274 96 113 149 132 142 152 203 156 106 95 305 288 285 277 287 298 307 312 312 310 313 302
182 236 235 253 251 256 275 259 224 237 245 255 257 244 241 232 263 276 275 268 254 144 120 109 83 83 127 93 298 161 9 326 292 302 300 303 305 304 307 310 309 309 313 318